�������l�o���
Date,Time,MP-1(��Sv/h),MP-2(��Sv/h),MP-3(��Sv/h),MP-4(��Sv/h),MP-5(��Sv/h),MP-6(��Sv/h),MP-7(��Sv/h),MP-8(��Sv/h),����,����(m/s),���J
2019/08/08,00:00,0.769,1.104,0.756,1.338,0.991,0.433,0.752,0.710,���쐼,0.9,��
2019/08/08,00:10,0.771,1.105,0.756,1.338,0.989,0.435,0.751,0.711,-,CALM,��
2019/08/08,00:20,0.771,1.107,0.757,1.337,0.990,0.435,0.750,0.711,��,0.9,��
2019/08/08,00:30,0.770,1.105,0.758,1.337,0.991,0.435,0.752,0.710,�k�k��,1.5,��
2019/08/08,00:40,0.770,1.102,0.757,1.338,0.992,0.434,0.752,0.709,�k�k��,2.2,��
2019/08/08,00:50,0.769,1.105,0.756,1.335,0.990,0.433,0.752,0.710,�k�k��,2.8,��
2019/08/08,01:00,0.770,1.103,0.757,1.337,0.989,0.434,0.752,0.711,�k�k��,3.6,��
2019/08/08,01:10,0.769,1.102,0.756,1.334,0.988,0.435,0.753,0.708,�k�k��,5.1,��
2019/08/08,01:20,0.772,1.103,0.754,1.339,0.989,0.435,0.750,0.709,�k�k��,5.0,��
2019/08/08,01:30,0.769,1.103,0.756,1.337,0.989,0.435,0.753,0.709,�k�k��,4.8,��
2019/08/08,01:40,0.771,1.103,0.756,1.336,0.990,0.434,0.752,0.712,�k�k��,4.6,��
2019/08/08,01:50,0.771,1.102,0.756,1.337,0.990,0.434,0.752,0.710,�k�k��,4.7,��
2019/08/08,02:00,0.771,1.104,0.756,1.339,0.989,0.434,0.751,0.708,�k�k��,3.6,��
2019/08/08,02:10,0.768,1.104,0.757,1.335,0.988,0.434,0.750,0.712,�k�k��,1.5,��
2019/08/08,02:20,0.771,1.101,0.757,1.336,0.991,0.435,0.751,0.710,�k,1.1,��
2019/08/08,02:30,0.770,1.105,0.755,1.334,0.988,0.435,0.753,0.709,�k�k��,2.0,��
2019/08/08,02:40,0.767,1.101,0.755,1.336,0.988,0.434,0.751,0.709,�k�k��,2.3,��
2019/08/08,02:50,0.770,1.105,0.755,1.335,0.989,0.435,0.750,0.711,�k�k��,2.3,��
2019/08/08,03:00,0.768,1.103,0.754,1.337,0.988,0.433,0.751,0.711,�k,2.2,��
2019/08/08,03:10,0.768,1.101,0.755,1.337,0.988,0.434,0.750,0.710,�k�k��,2.5,��
2019/08/08,03:20,0.769,1.100,0.756,1.336,0.987,0.435,0.751,0.709,�k,3.9,��
2019/08/08,03:30,0.769,1.102,0.755,1.335,0.989,0.435,0.751,0.710,�k,4.4,��
2019/08/08,03:40,0.768,1.102,0.754,1.334,0.988,0.434,0.751,0.709,�k�k��,4.1,��
2019/08/08,03:50,0.767,1.102,0.756,1.337,0.988,0.433,0.751,0.710,�k�k��,3.7,��
2019/08/08,04:00,0.769,1.102,0.755,1.336,0.988,0.435,0.753,0.709,�k�k��,3.3,��
2019/08/08,04:10,0.767,1.102,0.756,1.334,0.988,0.433,0.752,0.712,�k,3.7,��
2019/08/08,04:20,0.769,1.098,0.757,1.338,0.988,0.434,0.751,0.710,�k,3.1,��
2019/08/08,04:30,0.769,1.099,0.755,1.335,0.988,0.433,0.750,0.710,�k,2.6,��
2019/08/08,04:40,0.769,1.102,0.755,1.336,0.990,0.432,0.751,0.710,�k,3.4,��
2019/08/08,04:50,0.768,1.103,0.755,1.338,0.988,0.432,0.752,0.709,�k,3.3,��
2019/08/08,05:00,0.766,1.102,0.755,1.334,0.986,0.433,0.751,0.710,�k�k��,2.5,��
2019/08/08,05:10,0.767,1.100,0.754,1.334,0.988,0.433,0.751,0.710,�k�k��,3.0,��
2019/08/08,05:20,0.768,1.102,0.756,1.335,0.986,0.432,0.751,0.709,�k,2.6,��
2019/08/08,05:30,0.769,1.102,0.756,1.336,0.986,0.433,0.749,0.710,�k,3.1,��
2019/08/08,05:40,0.768,1.100,0.754,1.335,0.987,0.432,0.751,0.710,�k,3.5,��
2019/08/08,05:50,0.766,1.102,0.756,1.334,0.987,0.432,0.749,0.710,�k,2.3,��
2019/08/08,06:00,0.768,1.101,0.755,1.336,0.987,0.431,0.752,0.710,�k,2.0,��
2019/08/08,06:10,0.766,1.100,0.754,1.336,0.988,0.431,0.751,0.711,�k,1.2,��
2019/08/08,06:20,0.765,1.099,0.754,1.336,0.987,0.430,0.751,0.710,�k,1.5,��
2019/08/08,06:30,0.766,1.100,0.755,1.335,0.989,0.432,0.751,0.711,�k�k��,1.7,��
2019/08/08,06:40,0.767,1.098,0.755,1.334,0.988,0.431,0.750,0.710,�k�k��,1.7,��
2019/08/08,06:50,0.768,1.100,0.755,1.335,0.989,0.430,0.752,0.709,�k�k��,1.4,��
2019/08/08,07:00,0.768,1.102,0.754,1.334,0.987,0.431,0.752,0.710,�k,1.5,��
2019/08/08,07:10,0.766,1.101,0.755,1.336,0.988,0.431,0.752,0.710,�k,2.0,��
2019/08/08,07:20,0.766,1.100,0.755,1.334,0.988,0.431,0.752,0.710,�k,1.9,��
2019/08/08,07:30,0.768,1.098,0.755,1.335,0.987,0.431,0.751,0.709,�k�k��,1.7,��
2019/08/08,07:40,0.766,1.095,0.753,1.335,0.987,0.431,0.752,0.710,�k�k��,1.9,��
2019/08/08,07:50,0.765,1.096,0.752,1.336,0.987,0.430,0.752,0.710,�k�k��,2.2,��
2019/08/08,08:00,0.769,1.097,0.752,1.337,0.986,0.429,0.751,0.709,�k�k��,2.2,��
2019/08/08,08:10,0.769,1.098,0.753,1.336,0.988,0.431,0.752,0.711,�k�k��,1.9,��
2019/08/08,08:20,0.766,1.098,0.754,1.337,0.988,0.430,0.751,0.710,�k�k��,2.2,��
2019/08/08,08:30,0.766,1.097,0.751,1.337,0.988,0.430,0.752,0.708,�k,1.9,��
2019/08/08,08:40,0.766,1.099,0.752,1.337,0.988,0.431,0.751,0.709,�k�k��,1.7,��
2019/08/08,08:50,0.770,1.100,0.752,1.337,0.987,0.432,0.751,0.708,�k�k��,2.0,��
2019/08/08,09:00,0.770,1.098,0.752,1.337,0.989,0.431,0.752,0.708,�k�k��,2.3,��
2019/08/08,09:10,0.769,1.098,0.754,1.336,0.987,0.431,0.753,0.709,�k,2.6,��
2019/08/08,09:20,0.771,1.101,0.752,1.335,0.989,0.432,0.752,0.709,�k�k��,2.0,��
2019/08/08,09:30,0.770,1.099,0.753,1.335,0.989,0.433,0.752,0.708,�k�k��,2.6,��
2019/08/08,09:40,0.770,1.099,0.754,1.336,0.987,0.433,0.752,0.708,�k�k��,2.8,��
2019/08/08,09:50,0.767,1.098,0.750,1.337,0.989,0.433,0.751,0.707,�k�k��,2.9,��
2019/08/08,10:00,0.771,1.095,0.753,1.338,0.985,0.431,0.751,0.708,�k�k��,3.4,��
2019/08/08,10:10,0.768,1.099,0.751,1.337,0.989,0.433,0.751,0.708,�k�k��,2.9,��
2019/08/08,10:20,0.770,1.097,0.750,1.335,0.988,0.431,0.753,0.709,�k�k��,3.2,��
2019/08/08,10:30,0.771,1.098,0.753,1.337,0.989,0.431,0.751,0.710,�k�k��,2.6,��
2019/08/08,10:40,0.770,1.096,0.752,1.337,0.990,0.431,0.751,0.711,�k��,3.2,��
2019/08/08,10:50,0.771,1.098,0.754,1.338,0.990,0.433,0.750,0.708,�k��,2.8,��
2019/08/08,11:00,0.769,1.098,0.754,1.337,0.991,0.434,0.751,0.711,�k��,2.3,��
2019/08/08,11:10,0.769,1.101,0.755,1.338,0.990,0.432,0.752,0.709,���k��,2.3,��
2019/08/08,11:20,0.773,1.099,0.750,1.339,0.990,0.433,0.752,0.709,���k��,2.3,��
2019/08/08,11:30,0.772,1.099,0.754,1.336,0.992,0.432,0.751,0.708,��,2.0,��
2019/08/08,11:40,0.772,1.100,0.754,1.336,0.991,0.432,0.753,0.710,��,2.0,��
2019/08/08,11:50,0.772,1.102,0.754,1.336,0.992,0.433,0.755,0.709,���쓌,2.6,��
2019/08/08,12:00,0.770,1.102,0.755,1.337,0.994,0.432,0.751,0.709,�쓌,2.9,��
2019/08/08,12:10,0.771,1.104,0.757,1.335,0.993,0.433,0.751,0.711,�쓌,3.2,��
2019/08/08,12:20,0.772,1.103,0.755,1.336,0.991,0.432,0.752,0.709,�쓌,3.1,��
2019/08/08,12:30,0.771,1.102,0.755,1.335,0.991,0.432,0.753,0.709,�쓌,2.6,��
2019/08/08,12:40,0.773,1.102,0.756,1.337,0.990,0.432,0.753,0.710,�쓌,2.2,��
2019/08/08,12:50,0.773,1.103,0.754,1.339,0.992,0.432,0.750,0.711,�쓌,3.2,��
2019/08/08,13:00,0.772,1.103,0.757,1.338,0.992,0.433,0.752,0.709,���쓌,2.9,��
2019/08/08,13:10,0.769,1.100,0.756,1.338,0.991,0.432,0.752,0.709,���쓌,2.9,��
2019/08/08,13:20,0.772,1.101,0.755,1.337,0.994,0.433,0.751,0.709,�쓌,2.6,��
2019/08/08,13:30,0.771,1.100,0.756,1.336,0.996,0.432,0.752,0.709,���쓌,1.9,��
2019/08/08,13:40,0.771,1.104,0.755,1.338,0.993,0.431,0.751,0.709,���쓌,1.7,��
2019/08/08,13:50,0.769,1.100,0.756,1.338,0.994,0.433,0.752,0.709,�쓌,2.6,��
2019/08/08,14:00,0.771,1.103,0.756,1.340,0.996,0.433,0.752,0.710,���쓌,2.6,��
2019/08/08,14:10,0.772,1.102,0.755,1.338,0.994,0.432,0.751,0.712,�쓌,2.6,��
2019/08/08,14:20,0.772,1.102,0.754,1.339,0.994,0.432,0.751,0.710,��쓌,4.4,��
2019/08/08,14:30,0.770,1.103,0.755,1.338,0.993,0.432,0.754,0.710,�쓌,4.2,��
2019/08/08,14:40,0.772,1.102,0.754,1.339,0.996,0.434,0.753,0.711,��쓌,5.0,��
2019/08/08,14:50,0.770,1.102,0.758,1.338,0.996,0.434,0.753,0.709,��쓌,4.2,��
2019/08/08,15:00,0.774,1.102,0.758,1.339,0.995,0.432,0.753,0.710,��,5.0,��
2019/08/08,15:10,0.771,1.104,0.756,1.339,0.995,0.432,0.754,0.709,��쓌,5.2,��
2019/08/08,15:20,0.771,1.104,0.759,1.340,0.994,0.432,0.753,0.710,��,5.5,��
2019/08/08,15:30,0.773,1.107,0.758,1.339,0.995,0.432,0.753,0.709,��,6.6,��
2019/08/08,15:40,0.774,1.106,0.756,1.340,0.993,0.433,0.754,0.709,��,6.2,��
2019/08/08,15:50,0.773,1.107,0.756,1.340,0.993,0.432,0.752,0.708,��,6.2,��
2019/08/08,16:00,0.773,1.101,0.756,1.339,0.993,0.432,0.752,0.709,��쐼,4.9,�L
2019/08/08,16:10,0.774,1.108,0.759,1.339,0.995,0.432,0.753,0.709,��,5.2,�L
2019/08/08,16:20,0.773,1.106,0.757,1.339,0.994,0.432,0.753,0.708,��,4.6,�L
2019/08/08,16:30,0.773,1.106,0.758,1.342,0.996,0.432,0.753,0.708,��쐼,4.9,�L
2019/08/08,16:40,0.773,1.109,0.759,1.339,0.993,0.434,0.753,0.710,��쐼,4.1,�L
2019/08/08,16:50,0.772,1.105,0.757,1.338,0.996,0.433,0.752,0.709,�쐼,3.6,�L
2019/08/08,17:00,0.773,1.106,0.756,1.339,0.995,0.433,0.754,0.710,���쐼,3.1,�L
2019/08/08,17:10,0.775,1.107,0.758,1.340,0.994,0.434,0.754,0.711,�쐼,3.1,�L
2019/08/08,17:20,0.775,1.108,0.759,1.341,0.996,0.433,0.753,0.712,���k��,2.9,�L
2019/08/08,17:30,0.772,1.109,0.759,1.342,0.995,0.434,0.752,0.710,���쐼,3.7,�L
2019/08/08,17:40,0.774,1.108,0.760,1.343,0.994,0.434,0.753,0.711,���k��,3.5,��
2019/08/08,17:50,0.774,1.109,0.761,1.341,0.995,0.436,0.754,0.711,�k��,3.0,��
2019/08/08,18:00,0.775,1.109,0.759,1.343,0.996,0.435,0.755,0.710,�k,2.9,��
2019/08/08,18:10,0.774,1.108,0.757,1.342,0.996,0.435,0.753,0.711,�k�k��,5.6,��
2019/08/08,18:20,0.776,1.109,0.760,1.341,0.996,0.436,0.752,0.711,�k�k��,5.1,��
2019/08/08,18:30,0.775,1.107,0.760,1.343,0.998,0.435,0.755,0.710,�k�k��,6.2,��
2019/08/08,18:40,0.774,1.108,0.760,1.343,0.996,0.433,0.755,0.711,�k�k��,6.0,��
2019/08/08,18:50,0.775,1.108,0.760,1.345,0.994,0.435,0.753,0.710,�k,3.0,��
2019/08/08,19:00,0.775,1.106,0.761,1.341,0.994,0.433,0.752,0.710,�k,1.5,��
2019/08/08,19:10,0.773,1.107,0.762,1.340,0.994,0.435,0.754,0.711,�k,0.6,��
2019/08/08,19:20,0.776,1.109,0.759,1.341,0.996,0.435,0.753,0.711,��쐼,1.9,��
2019/08/08,19:30,0.774,1.104,0.760,1.341,0.994,0.434,0.753,0.711,��,2.8,��
2019/08/08,19:40,0.774,1.105,0.760,1.341,0.995,0.434,0.754,0.711,��,2.5,��
2019/08/08,19:50,0.775,1.106,0.757,1.341,0.993,0.434,0.753,0.710,��쐼,3.0,��
2019/08/08,20:00,0.775,1.108,0.756,1.343,0.994,0.435,0.754,0.711,��,2.0,��
2019/08/08,20:10,0.775,1.107,0.758,1.341,0.995,0.434,0.752,0.710,��쓌,0.8,��
2019/08/08,20:20,0.774,1.103,0.758,1.343,0.995,0.434,0.755,0.712,-,CALM,��
2019/08/08,20:30,0.772,1.107,0.759,1.342,0.995,0.434,0.754,0.711,�k��,1.1,��
2019/08/08,20:40,0.773,1.105,0.757,1.346,0.995,0.435,0.753,0.711,���k��,1.7,��
2019/08/08,20:50,0.773,1.105,0.759,1.343,0.994,0.434,0.754,0.712,���k��,2.3,��
2019/08/08,21:00,0.773,1.106,0.758,1.342,0.994,0.433,0.751,0.711,�k��,2.3,��
2019/08/08,21:10,0.775,1.107,0.760,1.340,0.994,0.433,0.753,0.709,-,CALM,��
2019/08/08,21:20,0.774,1.107,0.758,1.340,0.993,0.434,0.753,0.711,���k��,1.5,��
2019/08/08,21:30,0.772,1.107,0.760,1.340,0.994,0.433,0.753,0.712,���k��,3.0,��
2019/08/08,21:40,0.773,1.107,0.758,1.340,0.993,0.435,0.754,0.711,���k��,1.2,��
2019/08/08,21:50,0.772,1.105,0.757,1.344,0.991,0.434,0.753,0.711,���k��,1.9,��
2019/08/08,22:00,0.775,1.103,0.759,1.344,0.993,0.432,0.755,0.711,���쓌,1.2,��
2019/08/08,22:10,0.772,1.106,0.756,1.344,0.993,0.434,0.754,0.710,-,CALM,��
2019/08/08,22:20,0.773,1.107,0.756,1.341,0.992,0.434,0.752,0.711,-,CALM,��
2019/08/08,22:30,0.773,1.106,0.758,1.342,0.993,0.433,0.753,0.711,-,CALM,��
2019/08/08,22:40,0.774,1.104,0.759,1.341,0.994,0.434,0.755,0.711,-,CALM,��
2019/08/08,22:50,0.776,1.105,0.758,1.344,0.994,0.435,0.755,0.711,��쓌,0.6,��
2019/08/08,23:00,0.773,1.104,0.758,1.342,0.994,0.433,0.753,0.710,��,1.1,��
2019/08/08,23:10,0.773,1.104,0.759,1.340,0.993,0.433,0.753,0.710,�쐼,1.1,��
2019/08/08,23:20,0.775,1.105,0.758,1.344,0.993,0.433,0.753,0.711,��쐼,1.2,��
2019/08/08,23:30,0.773,1.106,0.757,1.342,0.995,0.434,0.754,0.712,�쐼,1.2,��
2019/08/08,23:40,0.773,1.104,0.757,1.340,0.992,0.435,0.753,0.711,��쐼,1.2,��
2019/08/08,23:50,0.772,1.107,0.759,1.344,0.992,0.433,0.753,0.712,��,2.2,��
